DLH7P LKPR-EDDF

Flight info

Callsign DLH7P
Flight time 0h 41m
Altitude 30000
Route BALTU DCT DONAD DCT RAPET T170 VAGAB/N0406F240 T170 GAPLA T178 KERAX KERAX5A
Aircraft A321/M-SDE3FGHIRWY/LB1

Departure

Time 2026-04-16 07:55
Airport Václav Havel Airport Prague (LKPR)

Arrival

Time 2026-04-16 08:36
Airport Frankfurt Main Airport (EDDF)
Time Latitude Longitude Altitude Speed Heading
2026-04-16 07:19 50.10384 14.26682 1179 ft 0 kts 34°
2026-04-16 07:43 50.10374 14.26672 1175 ft 4 kts 33°
2026-04-16 07:44 50.10353 14.26659 1179 ft 4 kts 340°
2026-04-16 07:44 50.10334 14.26683 1180 ft 3 kts 304°
2026-04-16 07:44 50.10330 14.26693 1179 ft 0 kts 304°
2026-04-16 07:48 50.10333 14.26686 1180 ft 2 kts 304°
2026-04-16 07:48 50.10343 14.26663 1181 ft 4 kts 304°
2026-04-16 07:49 50.10362 14.26621 1176 ft 6 kts 304°
2026-04-16 07:49 50.10392 14.26553 1178 ft 10 kts 304°
2026-04-16 07:49 50.10443 14.26453 1178 ft 14 kts 306°
2026-04-16 07:49 50.10500 14.26325 1178 ft 15 kts 304°
2026-04-16 07:50 50.10514 14.26196 1178 ft 13 kts 224°
2026-04-16 07:50 50.10459 14.26133 1185 ft 6 kts 215°
2026-04-16 07:50 50.10435 14.26124 1187 ft 6 kts 172°
2026-04-16 07:50 50.10379 14.26227 1189 ft 19 kts 127°
2026-04-16 07:51 50.10284 14.26425 1193 ft 24 kts 127°
2026-04-16 07:51 50.10187 14.26626 1197 ft 23 kts 127°
2026-04-16 07:51 50.10124 14.26756 1198 ft 22 kts 127°
2026-04-16 07:51 50.10006 14.27001 1204 ft 20 kts 127°
2026-04-16 07:52 50.09951 14.27116 1206 ft 20 kts 127°
2026-04-16 07:52 50.09866 14.27294 1204 ft 21 kts 128°
2026-04-16 07:52 50.09762 14.27458 1206 ft 21 kts 135°
2026-04-16 07:52 50.09620 14.27671 1208 ft 22 kts 136°
2026-04-16 07:53 50.09547 14.27784 1211 ft 22 kts 135°
2026-04-16 07:53 50.09429 14.27964 1217 ft 25 kts 135°
2026-04-16 07:53 50.09302 14.28165 1224 ft 26 kts 135°
2026-04-16 07:53 50.09193 14.28289 1230 ft 15 kts 171°
2026-04-16 07:54 50.09115 14.28234 1240 ft 13 kts 217°
2026-04-16 07:54 50.09069 14.28124 1233 ft 12 kts 290°
2026-04-16 07:54 50.09086 14.28089 1233 ft 4 kts 308°
2026-04-16 07:54 50.09143 14.27970 1233 ft 37 kts 307°
2026-04-16 07:55 50.09453 14.27327 1218 ft 109 kts 307°
2026-04-16 07:55 50.10032 14.26122 1196 ft 167 kts 307°
2026-04-16 07:55 50.10790 14.24594 1636 ft 178 kts 306°
2026-04-16 07:55 50.11543 14.23064 2393 ft 179 kts 304°
2026-04-16 07:56 50.12316 14.21455 2839 ft 194 kts 305°
2026-04-16 07:56 50.13143 14.19707 3261 ft 205 kts 306°
2026-04-16 07:56 50.13993 14.17893 3764 ft 212 kts 305°
2026-04-16 07:56 50.14869 14.16020 4153 ft 222 kts 306°
2026-04-16 07:57 50.15818 14.14012 4483 ft 241 kts 306°
2026-04-16 07:57 50.16864 14.11822 4864 ft 259 kts 303°
2026-04-16 07:57 50.17537 14.09205 5510 ft 264 kts 277°
2026-04-16 07:57 50.17627 14.06323 6282 ft 265 kts 272°
2026-04-16 07:58 50.17669 14.03438 7041 ft 266 kts 271°
2026-04-16 07:58 50.17707 14.00534 7753 ft 268 kts 272°
2026-04-16 07:58 50.17746 13.97608 8431 ft 271 kts 272°
2026-04-16 07:58 50.17788 13.94684 9101 ft 274 kts 272°
2026-04-16 07:59 50.17834 13.91689 9766 ft 277 kts 272°
2026-04-16 07:59 50.17882 13.88672 10386 ft 281 kts 272°
2026-04-16 07:59 50.17931 13.85504 10548 ft 303 kts 272°
2026-04-16 07:59 50.17980 13.82106 10666 ft 323 kts 271°
2026-04-16 08:00 50.18028 13.78544 10904 ft 338 kts 271°
2026-04-16 08:00 50.18077 13.74836 11415 ft 343 kts 271°
2026-04-16 08:00 50.18123 13.71082 11978 ft 347 kts 271°
2026-04-16 08:00 50.18170 13.67299 12555 ft 350 kts 271°
2026-04-16 08:01 50.18215 13.63480 13147 ft 352 kts 271°
2026-04-16 08:01 50.18260 13.59647 13716 ft 354 kts 271°
2026-04-16 08:01 50.18301 13.55792 14267 ft 357 kts 271°
2026-04-16 08:01 50.18341 13.51949 14826 ft 359 kts 271°
2026-04-16 08:02 50.18383 13.48031 15399 ft 361 kts 271°
2026-04-16 08:02 50.18467 13.40134 16457 ft 365 kts 271°
2026-04-16 08:02 50.18508 13.36204 16954 ft 368 kts 271°
2026-04-16 08:03 50.18549 13.32197 17457 ft 370 kts 271°
2026-04-16 08:03 50.18587 13.28174 17934 ft 372 kts 271°
2026-04-16 08:03 50.18622 13.24126 18385 ft 374 kts 271°
2026-04-16 08:03 50.18655 13.20051 18812 ft 376 kts 271°
2026-04-16 08:04 50.18689 13.15950 19234 ft 379 kts 271°
2026-04-16 08:04 50.18720 13.11817 19644 ft 381 kts 271°
2026-04-16 08:04 50.18750 13.07716 20067 ft 383 kts 271°
2026-04-16 08:04 50.18780 13.03542 20481 ft 385 kts 271°
2026-04-16 08:05 50.18810 12.99351 20879 ft 388 kts 271°
2026-04-16 08:05 50.18839 12.95128 21275 ft 390 kts 271°
2026-04-16 08:05 50.18865 12.90887 21653 ft 392 kts 271°
2026-04-16 08:05 50.18890 12.86611 22032 ft 394 kts 271°
2026-04-16 08:06 50.18912 12.82326 22372 ft 396 kts 270°
2026-04-16 08:06 50.18932 12.78005 22740 ft 399 kts 271°
2026-04-16 08:06 50.18950 12.73661 23137 ft 401 kts 271°
2026-04-16 08:06 50.18969 12.69297 23493 ft 403 kts 271°
2026-04-16 08:07 50.18987 12.64907 23845 ft 406 kts 270°
2026-04-16 08:07 50.19004 12.60491 24194 ft 407 kts 270°
2026-04-16 08:07 50.19017 12.56120 24499 ft 410 kts 270°
2026-04-16 08:07 50.19028 12.51658 24808 ft 412 kts 270°
2026-04-16 08:08 50.19036 12.47174 25127 ft 414 kts 270°
2026-04-16 08:08 50.19040 12.42669 25463 ft 415 kts 270°
2026-04-16 08:08 50.19046 12.38147 25775 ft 417 kts 271°
2026-04-16 08:08 50.19338 12.33625 26057 ft 419 kts 281°
2026-04-16 08:09 50.20100 12.29293 26341 ft 421 kts 289°
2026-04-16 08:09 50.21106 12.24987 26643 ft 422 kts 289°
2026-04-16 08:09 50.22114 12.20651 26940 ft 424 kts 289°
2026-04-16 08:09 50.23117 12.16303 27234 ft 426 kts 289°
2026-04-16 08:10 50.24116 12.11930 27509 ft 427 kts 289°
2026-04-16 08:10 50.25098 12.07597 27777 ft 429 kts 289°
2026-04-16 08:10 50.26098 12.03189 28052 ft 430 kts 289°
2026-04-16 08:10 50.27105 11.98769 28321 ft 432 kts 289°
2026-04-16 08:11 50.28122 11.94337 28567 ft 433 kts 289°
2026-04-16 08:11 50.29142 11.89899 28797 ft 435 kts 289°
2026-04-16 08:11 50.30165 11.85451 29017 ft 436 kts 289°
2026-04-16 08:11 50.31191 11.80974 29231 ft 438 kts 289°
2026-04-16 08:12 50.32218 11.76470 29431 ft 439 kts 289°
2026-04-16 08:12 50.33242 11.71963 29657 ft 439 kts 289°
2026-04-16 08:12 50.34263 11.67474 29959 ft 437 kts 288°
2026-04-16 08:12 50.35279 11.62984 30167 ft 437 kts 288°
2026-04-16 08:13 50.37254 11.54238 30221 ft 422 kts 288°
2026-04-16 08:13 50.39197 11.45600 30222 ft 419 kts 288°
2026-04-16 08:14 50.41128 11.36956 30221 ft 418 kts 288°
2026-04-16 08:14 50.43048 11.28331 30221 ft 419 kts 288°
2026-04-16 08:15 50.44961 11.19705 30220 ft 419 kts 287°
2026-04-16 08:15 50.46852 11.11129 30224 ft 418 kts 287°
2026-04-16 08:16 50.48750 11.02487 30128 ft 419 kts 287°
2026-04-16 08:16 50.49696 10.98166 29862 ft 417 kts 287°
2026-04-16 08:16 50.50629 10.93888 29372 ft 411 kts 287°
2026-04-16 08:17 50.51551 10.89655 28851 ft 407 kts 286°
2026-04-16 08:17 50.52226 10.85379 28335 ft 400 kts 277°
2026-04-16 08:17 50.52411 10.81059 27826 ft 394 kts 268°
2026-04-16 08:17 50.52130 10.76805 27303 ft 389 kts 258°
2026-04-16 08:18 50.51424 10.72728 26783 ft 385 kts 252°
2026-04-16 08:19 50.45807 10.45722 23359 ft 358 kts 252°
2026-04-16 08:20 50.45030 10.42028 22906 ft 355 kts 252°
2026-04-16 08:20 50.44255 10.38351 22474 ft 353 kts 252°
2026-04-16 08:20 50.43483 10.34689 22049 ft 351 kts 252°
2026-04-16 08:20 50.42716 10.31062 21630 ft 350 kts 252°
2026-04-16 08:21 50.41956 10.27472 21285 ft 357 kts 252°
2026-04-16 08:21 50.41161 10.23695 21214 ft 369 kts 252°
2026-04-16 08:21 50.40350 10.19848 21230 ft 373 kts 252°
2026-04-16 08:21 50.39532 10.15975 21228 ft 375 kts 252°
2026-04-16 08:22 50.38709 10.12097 21228 ft 374 kts 252°
2026-04-16 08:22 50.37896 10.08284 20531 ft 363 kts 252°
2026-04-16 08:22 50.37096 10.04539 19354 ft 359 kts 252°
2026-04-16 08:22 50.36305 10.00850 18198 ft 355 kts 252°
2026-04-16 08:23 50.35517 9.97178 17323 ft 356 kts 252°
2026-04-16 08:23 50.34738 9.93557 16785 ft 353 kts 252°
2026-04-16 08:23 50.33952 9.89921 16232 ft 350 kts 252°
2026-04-16 08:23 50.33175 9.86324 15688 ft 347 kts 252°
2026-04-16 08:24 50.32403 9.82759 15126 ft 344 kts 252°
2026-04-16 08:24 50.31636 9.79218 14592 ft 342 kts 252°
2026-04-16 08:24 50.30883 9.75740 14034 ft 339 kts 252°
2026-04-16 08:24 50.30126 9.72248 13478 ft 337 kts 252°
2026-04-16 08:25 50.29375 9.68786 12910 ft 335 kts 252°
2026-04-16 08:25 50.28627 9.65347 12372 ft 332 kts 252°
2026-04-16 08:25 50.27883 9.61926 11810 ft 330 kts 252°
2026-04-16 08:25 50.27144 9.58549 11440 ft 327 kts 251°
2026-04-16 08:26 50.26402 9.55162 11188 ft 329 kts 252°
2026-04-16 08:26 50.25660 9.51781 10935 ft 329 kts 251°
2026-04-16 08:26 50.24925 9.48442 10690 ft 328 kts 251°
2026-04-16 08:26 50.24188 9.45102 10441 ft 320 kts 251°
2026-04-16 08:27 50.23473 9.41863 10184 ft 309 kts 251°
2026-04-16 08:27 50.22778 9.38753 10048 ft 296 kts 251°
2026-04-16 08:27 50.22096 9.35781 9919 ft 284 kts 251°
2026-04-16 08:27 50.21432 9.32918 9793 ft 279 kts 251°
2026-04-16 08:28 50.20767 9.30066 9666 ft 278 kts 251°
2026-04-16 08:28 50.20103 9.27220 9382 ft 280 kts 251°
2026-04-16 08:28 50.19447 9.24398 8941 ft 280 kts 251°
2026-04-16 08:28 50.18783 9.21537 8554 ft 278 kts 251°
2026-04-16 08:29 50.18127 9.18695 8145 ft 277 kts 251°
2026-04-16 08:29 50.17474 9.15863 7712 ft 277 kts 251°
2026-04-16 08:29 50.16825 9.13060 7337 ft 271 kts 251°
2026-04-16 08:29 50.16185 9.10300 6733 ft 269 kts 251°
2026-04-16 08:30 50.15559 9.07605 6272 ft 265 kts 250°
2026-04-16 08:30 50.14929 9.04907 5838 ft 263 kts 250°
2026-04-16 08:30 50.14302 9.02227 5399 ft 264 kts 250°
2026-04-16 08:30 50.13680 8.99573 5234 ft 255 kts 250°
2026-04-16 08:31 50.13082 8.97031 5134 ft 243 kts 250°
2026-04-16 08:31 50.12517 8.94619 5090 ft 232 kts 250°
2026-04-16 08:31 50.11966 8.92268 4894 ft 233 kts 250°
2026-04-16 08:31 50.11407 8.89895 4573 ft 234 kts 250°
2026-04-16 08:32 50.10851 8.87566 4262 ft 229 kts 250°
2026-04-16 08:32 50.10303 8.85267 3939 ft 224 kts 250°
2026-04-16 08:32 50.09773 8.83026 3632 ft 218 kts 250°
2026-04-16 08:32 50.09251 8.80830 3372 ft 213 kts 250°
2026-04-16 08:33 50.08749 8.78702 3159 ft 203 kts 250°
2026-04-16 08:33 50.08396 8.76631 2956 ft 193 kts 261°
2026-04-16 08:33 50.08281 8.74587 2752 ft 186 kts 261°
2026-04-16 08:33 50.07961 8.72719 2559 ft 172 kts 247°
2026-04-16 08:34 50.07526 8.71062 2261 ft 160 kts 246°
2026-04-16 08:34 50.07115 8.69513 1981 ft 150 kts 248°
2026-04-16 08:34 50.06750 8.68004 1737 ft 149 kts 249°
2026-04-16 08:34 50.06398 8.66500 1506 ft 145 kts 248°
2026-04-16 08:35 50.06042 8.65038 1278 ft 144 kts 247°
2026-04-16 08:35 50.05681 8.63578 1081 ft 144 kts 249°
2026-04-16 08:35 50.05336 8.62132 904 ft 144 kts 248°
2026-04-16 08:35 50.04987 8.60665 721 ft 143 kts 249°
2026-04-16 08:36 50.04640 8.59210 510 ft 143 kts 248°
2026-04-16 08:36 50.04295 8.57772 368 ft 132 kts 249°
2026-04-16 08:36 50.04028 8.56666 358 ft 85 kts 250°
2026-04-16 08:36 50.03919 8.56215 358 ft 43 kts 249°
2026-04-16 08:37 50.03894 8.55778 349 ft 23 kts 277°
2026-04-16 08:37 50.03943 8.55633 354 ft 15 kts 353°
2026-04-16 08:37 50.03988 8.55700 356 ft 14 kts 68°
2026-04-16 08:37 50.04024 8.55843 350 ft 15 kts 70°
2026-04-16 08:38 50.04059 8.55994 353 ft 15 kts 69°
2026-04-16 08:38 50.04096 8.56151 360 ft 16 kts 70°
2026-04-16 08:38 50.04151 8.56279 361 ft 14 kts 16°
2026-04-16 08:38 50.04240 8.56241 362 ft 14 kts 340°
2026-04-16 08:39 50.04287 8.56146 360 ft 12 kts 266°
2026-04-16 08:39 50.04338 8.56057 356 ft 12 kts 341°
2026-04-16 08:39 50.04421 8.56035 356 ft 12 kts 21°
2026-04-16 08:39 50.04462 8.56157 358 ft 14 kts 70°
2026-04-16 08:40 50.04497 8.56302 356 ft 15 kts 69°
2026-04-16 08:40 50.04508 8.56384 356 ft 4 kts 119°
2026-04-16 08:40 50.04481 8.56409 362 ft 5 kts 152°
2026-04-16 08:40 50.04460 8.56426 356 ft 2 kts 154°
2026-04-16 08:41 50.04455 8.56430 364 ft 0 kts 154°